Flag for U.S.A. Weather past 2 weeks in Richmond, Virginia, U.S.A.

63 °F

Light rain. Mostly cloudy.

Feels Like: 63 °F
Forecast: 50 / 67 °F
Wind: 3 mph from East

Location: Richmond International Airport

Current Time: Oct 10, 2015 at 12:20:16 AM

Latest Report: Oct 9, 2015 at 11:54 PM

Visibility: 10 mi

Pressure: 29.98 "Hg

Humidity: 100%

Dew point: 63 °F

Location of RichmondLocation

Historic Weather in Richmond — Graph


Richmond temperature yesterday

Maximum temperature yesterday: 81 °F (at 2:54 PM)
Minimum temperature yesterday: 58 °F (at 4:54 AM)
Average temperature yesterday: 68 °F

Past Weeks' High & Low Weather Summary

High82 °F (Sep 30, 1:54 PM)100% (Sep 29, 6:54 PM)30.33 "Hg (Sep 29, 6:54 PM)
Low47 °F (Oct 6, 5:54 AM)46% (Oct 6, 3:54 PM)29.72 "Hg (Sep 30, 4:54 AM)
Average64 °F88%30.06 "Hg
* Reported Sep 24 11:54 PM — Oct 9 11:03 PM, Richmond, Weather by CustomWeather, © 2015

Note: Actual official high and low records may vary slightly from our data, if they occured in-between our weather recording intervals... More about our weather records


Richmond weather history for previous 24 hours

Time TempWeatherWind HumidityBarometerVisibility
11:03 PM
Fri, Oct 9
64 °FLight rain. Mostly cloudy.No wind94%29.97 "Hg10 mi
10:54 PM65 °FThunderstorms. Fog.No wind91%29.98 "Hg5 mi
9:54 PM72 °FMostly cloudy.17 mph78%29.95 "Hg10 mi
8:54 PM70 °FHigh level clouds.8 mph84%29.92 "Hg10 mi
7:54 PM70 °FHigh level clouds.8 mph84%29.91 "Hg10 mi
6:54 PM71 °FHigh level clouds.7 mph78%29.91 "Hg10 mi
5:54 PM78 °FPartly sunny.10 mph60%29.90 "Hg10 mi
4:54 PM80 °FBroken clouds.16 mph54%29.90 "Hg10 mi
3:54 PM81 °FMostly cloudy.17 mph54%29.90 "Hg10 mi
2:54 PM81 °FPartly sunny.13 mph56%29.92 "Hg10 mi
1:54 PM77 °FPartly sunny.9 mph64%29.97 "Hg10 mi
12:54 PM76 °FMostly cloudy.14 mph64%30.00 "Hg10 mi
11:54 AM78 °FPartly sunny.18 mph60%30.01 "Hg10 mi
10:54 AM74 °FScattered clouds.15 mph69%30.03 "Hg10 mi
9:54 AM70 °FScattered clouds.14 mph79%30.04 "Hg10 mi
8:54 AM64 °FScattered clouds.9 mph94%30.05 "Hg10 mi
7:54 AM59 °FPartly cloudy.6 mph100%30.05 "Hg7 mi
6:54 AM58 °FPassing clouds.5 mph100%30.05 "Hg7 mi
5:54 AM58 °FPassing clouds.6 mph100%30.06 "Hg8 mi
4:54 AM58 °FPassing clouds.3 mph100%30.06 "Hg8 mi
3:54 AM59 °FPassing clouds.No wind100%30.06 "Hg10 mi
2:54 AM60 °FPassing clouds.3 mph96%30.07 "Hg10 mi
1:54 AM60 °FPassing clouds.3 mph100%30.09 "Hg9 mi
12:54 AM60 °FPassing clouds.3 mph97%30.10 "Hg9 mi
Weather by CustomWeather, © 2015

See weather overviewHow to use our weather pages